When you browse on this site, cookies collect data to enhance your experience and personalize the content and advertising you see.
Visit our Privacy Policy to learn more. By continuing to use the site, you agree to this use of cookies and data.
  • In United Kingdom
  • List of Countries
  • For 7 days
  • Water Temperature
  • Weather Map
  • Weather Widgets
  • user-avatar
    Login

    Hourly Weather Piura

    Today, 20 August, Tuesday

    Time Temperature Precipitation Wind Pressure Humidity
    00:00 +18°C° 0 mm 3 mps 758 mmHg 79%
    01:00 +17°C° 0 mm 3 mps 757 mmHg 78%
    02:00 +17°C° 0 mm 3 mps 757 mmHg 80%
    03:00 +17°C° 0 mm 3 mps 757 mmHg 81%
    04:00 +16°C° 0 mm 3 mps 756 mmHg 82%
    05:00 +16°C° 0 mm 3 mps 756 mmHg 82%
    06:00 +16°C° 0 mm 2 mps 756 mmHg 82%
    07:00 +17°C° 0 mm 3 mps 757 mmHg 82%
    08:00 +19°C° 0 mm 2 mps 757 mmHg 73%
    09:00 +21°C° 0 mm 2 mps 757 mmHg 64%
    10:00 +24°C° 0 mm 2 mps 757 mmHg 55%
    11:00 +26°C° 0 mm 3 mps 757 mmHg 49%
    12:00 +29°C° 0 mm 4 mps 756 mmHg 43%
    13:00 +32°C° 0 mm 5 mps 755 mmHg 37%
    14:00 +30°C° 0 mm 6 mps 755 mmHg 39%
    15:00 +30°C° 0 mm 6 mps 754 mmHg 41%
    16:00 +29°C° 0 mm 7 mps 754 mmHg 43%
    17:00 +27°C° 0 mm 7 mps 754 mmHg 49%
    18:00 +24°C° 0 mm 6 mps 755 mmHg 56%
    19:00 +21°C° 0 mm 6 mps 756 mmHg 63%
    20:00 +20°C° 0 mm 5 mps 756 mmHg 67%
    21:00 +20°C° 0 mm 4 mps 757 mmHg 71%
    22:00 +19°C° 0 mm 3 mps 757 mmHg 75%
    23:00 +18°C° 0 mm 3 mps 757 mmHg 76%

    Tomorrow, 21 August, Wednesday

    Time Temperature Precipitation Wind Pressure Humidity
    00:00 +18°C° 0 mm 3 mps 757 mmHg 78%
    01:00 +18°C° 0 mm 3 mps 757 mmHg 80%
    02:00 +17°C° 0 mm 3 mps 757 mmHg 81%
    03:00 +17°C° 0 mm 2 mps 757 mmHg 83%
    04:00 +17°C° 0 mm 2 mps 756 mmHg 84%
    05:00 +17°C° 0 mm 2 mps 757 mmHg 84%
    06:00 +17°C° 0 mm 2 mps 757 mmHg 83%
    07:00 +17°C° 0 mm 2 mps 757 mmHg 82%
    08:00 +20°C° 0 mm 2 mps 757 mmHg 72%
    09:00 +23°C° 0 mm 2 mps 757 mmHg 63%
    10:00 +25°C° 0 mm 2 mps 757 mmHg 53%
    11:00 +27°C° 0 mm 2 mps 757 mmHg 47%
    12:00 +30°C° 0 mm 3 mps 756 mmHg 41%
    13:00 +33°C° 0 mm 4 mps 755 mmHg 35%
    14:00 +33°C° 0 mm 5 mps 755 mmHg 37%
    15:00 +32°C° 0 mm 6 mps 754 mmHg 39%
    16:00 +30°C° 0 mm 7 mps 754 mmHg 41%
    17:00 +28°C° 0 mm 7 mps 755 mmHg 49%
    18:00 +24°C° 0 mm 6 mps 755 mmHg 58%
    19:00 +21°C° 0 mm 6 mps 756 mmHg 67%
    20:00 +20°C° 0 mm 5 mps 757 mmHg 70%
    21:00 +20°C° 0 mm 5 mps 757 mmHg 74%
    22:00 +19°C° 0 mm 4 mps 758 mmHg 77%
    23:00 +19°C° 0 mm 4 mps 758 mmHg 79%

    Day after tomorrow, 22 August, Thursday

    Time Temperature Precipitation Wind Pressure Humidity
    00:00 +18°C° 0 mm 3 mps 757 mmHg 80%
    01:00 +18°C° 0 mm 2 mps 757 mmHg 82%
    02:00 +18°C° 0 mm 2 mps 757 mmHg 82%
    03:00 +18°C° 0 mm 1 mps 757 mmHg 83%
    04:00 +18°C° 0 mm 1 mps 756 mmHg 84%
    05:00 +18°C° 0 mm 1 mps 757 mmHg 83%
    06:00 +19°C° 0 mm 1 mps 757 mmHg 82%
    07:00 +18°C° 0 mm 2 mps 757 mmHg 81%
    08:00 +20°C° 0 mm 2 mps 757 mmHg 71%
    09:00 +23°C° 0 mm 2 mps 758 mmHg 62%
    10:00 +26°C° 0 mm 3 mps 758 mmHg 52%
    11:00 +28°C° 0 mm 3 mps 757 mmHg 47%
    12:00 +30°C° 0 mm 4 mps 756 mmHg 42%
    13:00 +33°C° 0 mm 5 mps 756 mmHg 37%
    14:00 +32°C° 0 mm 6 mps 755 mmHg 39%
    15:00 +30°C° 0 mm 7 mps 755 mmHg 42%
    16:00 +29°C° 0 mm 7 mps 755 mmHg 44%
    17:00 +27°C° 0 mm 7 mps 755 mmHg 52%
    18:00 +24°C° 0 mm 7 mps 756 mmHg 60%
    19:00 +21°C° 0 mm 7 mps 756 mmHg 68%
    20:00 +21°C° 0 mm 6 mps 757 mmHg 72%
    21:00 +20°C° 0 mm 5 mps 757 mmHg 75%
    22:00 +19°C° 0 mm 4 mps 758 mmHg 79%
    23:00 +19°C° 0 mm 3 mps 758 mmHg 80%

    23 August, Friday

    Time Temperature Precipitation Wind Pressure Humidity
    00:00 +18°C° 0 mm 2 mps 757 mmHg 81%
    01:00 +18°C° 0 mm 2 mps 757 mmHg 82%
    02:00 +19°C° 0 mm 1 mps 757 mmHg 83%
    03:00 +19°C° 0 mm 1 mps 757 mmHg 84%
    04:00 +19°C° 0 mm 1 mps 756 mmHg 85%
    05:00 +19°C° 0 mm 1 mps 756 mmHg 83%
    06:00 +19°C° 0 mm 1 mps 757 mmHg 82%
    07:00 +18°C° 0 mm 2 mps 757 mmHg 81%
    08:00 +20°C° 0 mm 2 mps 757 mmHg 72%
    09:00 +23°C° 0 mm 2 mps 757 mmHg 63%
    10:00 +25°C° 0 mm 1 mps 758 mmHg 55%
    11:00 +27°C° 0 mm 2 mps 757 mmHg 49%
    12:00 +30°C° 0 mm 3 mps 756 mmHg 43%
    13:00 +33°C° 0 mm 3 mps 756 mmHg 37%
    14:00 +32°C° 0 mm 5 mps 755 mmHg 38%
    15:00 +32°C° 0 mm 6 mps 755 mmHg 40%
    16:00 +31°C° 0 mm 8 mps 754 mmHg 42%
    17:00 +28°C° 0 mm 7 mps 755 mmHg 50%
    18:00 +24°C° 0 mm 6 mps 755 mmHg 58%
    19:00 +22°C° 0 mm 5 mps 755 mmHg 67%
    20:00 +21°C° 0 mm 5 mps 756 mmHg 71%
    21:00 +20°C° 0 mm 4 mps 757 mmHg 75%
    22:00 +19°C° 0 mm 4 mps 757 mmHg 78%
    23:00 +19°C° 0 mm 4 mps 757 mmHg 81%

    24 August, Saturday

    Time Temperature Precipitation Wind Pressure Humidity
    00:00 +18°C° 0 mm 3 mps 757 mmHg 83%
    01:00 +18°C° 0 mm 3 mps 757 mmHg 85%
    02:00 +18°C° 0 mm 3 mps 757 mmHg 85%
    03:00 +18°C° 0 mm 2 mps 757 mmHg 85%
    04:00 +18°C° 0 mm 2 mps 756 mmHg 85%
    05:00 +18°C° 0 mm 2 mps 757 mmHg 84%
    06:00 +18°C° 0 mm 2 mps 757 mmHg 83%
    07:00 +18°C° 0 mm 2 mps 757 mmHg 82%
    08:00 +20°C° 0 mm 2 mps 757 mmHg 74%
    09:00 +23°C° 0 mm 2 mps 757 mmHg 65%
    10:00 +25°C° 0 mm 2 mps 757 mmHg 56%
    11:00 +27°C° 0 mm 3 mps 757 mmHg 50%
    12:00 +29°C° 0 mm 4 mps 756 mmHg 43%
    13:00 +33°C° 0 mm 5 mps 755 mmHg 37%
    14:00 +32°C° 0 mm 6 mps 755 mmHg 40%
    15:00 +30°C° 0 mm 6 mps 755 mmHg 42%
    16:00 +29°C° 0 mm 7 mps 754 mmHg 44%
    17:00 +26°C° 0 mm 7 mps 755 mmHg 54%
    18:00 +23°C° 0 mm 6 mps 755 mmHg 63%
    19:00 +20°C° 0 mm 6 mps 756 mmHg 72%
    20:00 +20°C° 0 mm 5 mps 757 mmHg 74%
    21:00 +19°C° 0 mm 4 mps 757 mmHg 77%
    22:00 +19°C° 0 mm 4 mps 758 mmHg 79%
    23:00 +18°C° 0 mm 3 mps 758 mmHg 81%

    25 August, Sunday

    Time Temperature Precipitation Wind Pressure Humidity
    00:00 +18°C° 0 mm 2 mps 757 mmHg 83%
    01:00 +19°C° 0 mm 1 mps 757 mmHg 85%
    02:00 +18°C° 0 mm 1 mps 757 mmHg 86%
    03:00 +18°C° 0 mm 1 mps 757 mmHg 86%
    04:00 +18°C° 0 mm 1 mps 756 mmHg 87%
    05:00 +18°C° 0 mm 1 mps 756 mmHg 86%
    06:00 +19°C° 0 mm 1 mps 757 mmHg 84%
    07:00 +19°C° 0 mm 1 mps 757 mmHg 82%
    08:00 +21°C° 0 mm 1 mps 757 mmHg 72%
    09:00 +24°C° 0 mm 1 mps 757 mmHg 61%
    10:00 +26°C° 0 mm 2 mps 757 mmHg 51%
    11:00 +28°C° 0 mm 3 mps 757 mmHg 45%
    12:00 +30°C° 0 mm 4 mps 756 mmHg 39%
    13:00 +33°C° 0 mm 5 mps 755 mmHg 34%
    14:00 +32°C° 0 mm 6 mps 755 mmHg 36%
    15:00 +32°C° 0 mm 7 mps 754 mmHg 38%
    16:00 +30°C° 0 mm 7 mps 754 mmHg 41%
    17:00 +28°C° 0 mm 7 mps 754 mmHg 48%
    18:00 +24°C° 0 mm 7 mps 755 mmHg 55%
    19:00 +22°C° 0 mm 6 mps 755 mmHg 62%
    20:00 +21°C° 0 mm 5 mps 756 mmHg 67%
    21:00 +20°C° 0 mm 4 mps 756 mmHg 72%
    22:00 +19°C° 0 mm 3 mps 757 mmHg 77%
    23:00 +19°C° 0 mm 3 mps 756 mmHg 79%
    Show more